Regional Weather Roundup
Issued by NWS State College, PA

Home | Current Version | Previous Version | Text Only | Print | Product List | Glossary On
Versions: 1 2 3 4 5 6 7 8 9 10 11 12 13 14 15 16 17 18 19 20 21 22 23 24 25 26 27 28 29 30 31 32 33 34 35 36 37 38 39 40 41 42 43 44 45 46 47 48 49 50
000
ASUS41 KCTP 160410
RWRCTP

REGIONAL WEATHER ROUNDUP
NATIONAL WEATHER SERVICE STATE COLLEGE PA
1100 PM EST FRI DEC 15 2017

Note: "fair" indicates few or no clouds below 12,000 feet with no
significant weather and/or obstructions to visibility.

* = STATION THAT DOES NOT REPORT PRECIPITATION /E.G. RAIN...SNOW...ETC/
    THUNDER OR FOG.

PAZ002>004-007>009-013>016-020>023-029>032-160500-
WESTERN PENNSYLVANIA

CITY           SKY/WX    TMP DP  RH WIND       PRES   REMARKS
ERIE           LGT SNOW  28  16  60 W23G39    29.90R WCI  14
MEADVILLE      LGT SNOW  22  16  78 W16G24    29.90R WCI   8
FRANKLIN*      FLURRIES  22  12  65 W13G22    29.90R WCI  10
NEW CASTLE     CLOUDY    25  17  72 W9        29.98R
BEAVER COUNTY  NOT AVBL
BUTLER*        FLURRIES  25  16  68 W13G22    29.97R WCI  14
PITTSBURGH INT CLOUDY    28  16  60 W13       29.99R
PITTSBURGH     MOCLDY    25  16  68 W13G28    29.98R WCI  14
INDIANA*       FOG       25  21  86 W13G21    29.97R VSB 1   WCI  13
LATROBE        LGT SNOW  27  23  86 W12G21    29.99R
WASHINGTON CO* FLURRIES  27  21  78 W14       30.04R
$$

PAZ004>006-010>012-017>019-024>028-033>037-041-042-045-046-049>053-160500-
CENTRAL PENNSYLVANIA

CITY           SKY/WX    TMP DP  RH WIND       PRES   REMARKS
BRADFORD       LGT SNOW  20  15  81 SW12G22   29.79R WCI   8
DUBOIS         CLOUDY    21  13  71 W20G26    29.86R HAZE    WCI   6
CLEARFIELD     CLOUDY    24  13  62 W13G24    29.88R WCI  12
JOHNSTOWN      CLOUDY    22  17  81 W17G26    29.86R WCI   8
ALTOONA        CLOUDY    27  17  66 W22       29.91R WCI  13
STATE COLLEGE  PTCLDY    25  14  62 W23G31    29.90R WCI  10
WILLIAMSPORT   CLEAR     17  14  88 CALM      29.90S
SELINSGROVE    CLEAR     17  16  95 S3        29.93S FOG
FT INDIANTOWN  MOCLDY    14  13  98 CALM      29.94R
CAPITAL CITY   MOCLDY    20  16  84 CALM      29.96R
HARRISBURG     MOCLDY    23  20  88 CALM      29.95S
YORK           MOCLDY    25  19  78 VRB5      29.95R
$$

PAZ038>040-043-044-047-048-054-055-060>062-067>071-160500-
EASTERN PENNSYLVANIA

CITY           SKY/WX    TMP DP  RH WIND       PRES   REMARKS
SCRANTON       MOCLDY    19  17  92 CALM      29.86R FOG
MOUNT POCONO   CLEAR     15  14  95 W12       29.77R WCI   2
ALLENTOWN      CLEAR     20  16  84 W8        29.92S WCI  10
QUAKERTOWN*    CLEAR     18  16  93 CALM      29.92F
READING        CLEAR     20  19  96 CALM      29.94S FOG
LANCASTER      FOG       15  15 100 CALM      29.96R VSB 1/4
COATESVILLE    PTCLDY    19  21 100 CALM      29.95S FOG
POTTSTOWN      CLEAR     14  11  87 SW3       29.96S FOG
BLUE BELL      CLEAR     18  18 100 CALM      29.96S
DOYLESTOWN     CLEAR     19  17  92 SW5       29.92S WCI  12
WILLOW GROVE   NOT AVBL
NORTH PHILA    PTCLDY    21  17  84 W6        29.97F FOG     WCI  13
PHILADELPHIA   PTCLDY    22  19  89 W10       29.98S WCI  11
$$




USA.gov is the U.S. government's official web portal to all federal, state and local government web resources and services.